GW2166 Weather Reports


time (UTC)temp
C
wind
direction
speed
KPH
gust
KPH
rain 1hr
cm
rain 24hr
cm
rain mn
cm
humidity
%
barometer
mb
20260507145202 15 212 8.0 17.7 0.00 0.00 0.00 72 1016.2
20260507144702 15 237 8.0 19.3 0.00 0.00 0.00 70 1016.2
20260507144201 14 305 4.8 19.3 0.00 0.00 0.00 71 1016.3
20260507143702 14 230 9.7 22.5 0.00 0.00 0.00 72 1016.3
20260507143203 14 202 11.3 22.5 0.00 0.00 0.00 72 1016.3
20260507142203 13 204 8.0 19.3 0.00 0.00 0.00 75 1016.2
20260507141703 13 227 6.4 17.7 0.00 0.00 0.00 76 1016.4
20260507141202 13 241 6.4 17.7 0.00 0.00 0.00 77 1016.3
20260507140202 12 207 6.4 16.1 0.00 0.00 0.00 80 1016.5
20260507135702 12 188 4.8 14.5 0.00 0.00 0.00 83 1016.6
20260507135202 11 244 4.8 14.5 0.00 0.00 0.00 82 1016.6
20260507134701 11 258 4.8 11.3 0.00 0.00 0.00 85 1016.6
20260507134202 11 195 6.4 16.1 0.00 0.00 0.00 87 1016.5
20260507133702 10 248 6.4 16.1 0.00 0.00 0.00 89 1016.6
20260507133202 10 176 4.8 14.5 0.00 0.00 0.00 91 1016.5
20260507132701 9 206 6.4 11.3 0.00 0.00 0.00 93 1016.5
20260507132202 9 206 6.4 11.3 0.00 0.00 0.00 95 1016.5
20260507131703 8 237 3.2 9.7 0.00 0.00 0.00 96 1016.6
20260507131202 8 172 3.2 8.0 0.00 0.00 0.00 95 1016.6
20260507130702 8 207 4.8 8.0 0.00 0.00 0.00 96 1016.5
20260507130202 7 216 1.6 8.0 0.00 0.00 0.00 96 1016.6
20260507125202 7 224 3.2 6.4 0.00 0.00 0.00 95 1016.7
20260507124702 6 212 1.6 4.8 0.00 0.00 0.00 95 1016.6
20260507123702 6 199 1.6 4.8 0.00 0.00 0.00 95 1016.7
20260507122703 5 199 0.0 3.2 0.00 0.00 0.00 95 1016.7
20260507121702 4 199 0.0 1.6 0.00 0.00 0.00 95 1016.7
20260507120702 3 199 0.0 0.0 0.00 0.00 0.00 94 1016.6
20260507120202 3 199 0.0 0.0 0.00 0.00 0.00 94 1016.7
20260507115702 3 199 0.0 0.0 0.00 0.00 0.00 94 1016.7
20260507115202 3 199 0.0 0.0 0.00 0.00 0.00 94 1016.6
20260507114702 3 199 0.0 0.0 0.00 0.00 0.00 93 1016.6
20260507114202 3 199 0.0 0.0 0.00 0.00 0.00 93 1016.5
20260507113704 3 199 0.0 0.0 0.00 0.00 0.00 93 1016.5
20260507113202 3 199 0.0 0.0 0.00 0.00 0.00 93 1016.6
20260507112702 3 199 0.0 3.2 0.00 0.00 0.00 93 1016.5
20260507112202 3 199 0.0 3.2 0.00 0.00 0.00 93 1016.5
20260507111702 2 199 0.0 3.2 0.00 0.00 0.00 93 1016.6
20260507111202 2 199 1.6 3.2 0.00 0.00 0.00 93 1016.5
20260507110702 3 199 1.6 3.2 0.00 0.00 0.00 93 1016.5
20260507110202 3 199 1.6 3.2 0.00 0.00 0.00 93 1016.4
20260507105702 3 199 0.0 1.6 0.00 0.00 0.00 93 1016.4
20260507105202 3 199 0.0 0.0 0.00 0.00 0.00 93 1016.4
20260507104202 3 199 0.0 0.0 0.00 0.00 0.00 92 1016.3
20260507103703 3 199 0.0 1.6 0.00 0.00 0.00 92 1016.3
20260507103201 3 199 0.0 3.2 0.00 0.00 0.00 92 1016.4
20260507102702 3 199 0.0 3.2 0.00 0.00 0.00 92 1016.4
20260507102202 3 199 0.0 3.2 0.00 0.00 0.00 92 1016.4
20260507101702 3 199 1.6 3.2 0.00 0.00 0.00 92 1016.5
20260507100201 3 199 0.0 0.0 0.00 0.00 0.00 92 1016.5
20260507095202 3 199 0.0 0.0 0.00 0.00 0.00 93 1016.6
20260507094705 3 199 0.0 0.0 0.00 0.00 0.00 92 1016.6
20260507094201 3 199 0.0 0.0 0.00 0.00 0.00 92 1016.6
20260507093702 3 199 0.0 1.6 0.00 0.00 0.00 92 1016.7
20260507092702 3 199 0.0 0.0 0.00 0.00 0.00 92 1016.7
20260507092202 3 199 0.0 0.0 0.00 0.00 0.00 92 1016.7
20260507091702 3 199 0.0 0.0 0.00 0.00 0.00 93 1016.7
20260507091202 3 199 0.0 1.6 0.00 0.00 0.00 92 1016.8
20260507090202 4 199 1.6 4.8 0.00 0.00 0.00 92 1016.8
20260507085702 4 192 0.0 0.0 0.00 0.00 0.00 92 1016.7
20260507085201 4 192 0.0 1.6 0.00 0.00 0.00 93 1016.8
20260507084702 4 192 0.0 1.6 0.00 0.00 0.00 93 1016.8
20260507084202 4 192 0.0 4.8 0.00 0.00 0.00 93 1016.8
20260507083702 4 192 1.6 4.8 0.00 0.00 0.00 93 1016.7
20260507083201 4 192 1.6 4.8 0.00 0.00 0.00 93 1016.8
20260507082702 4 192 1.6 4.8 0.00 0.00 0.00 92 1016.8
20260507082202 4 192 1.6 8.0 0.00 0.00 0.00 92 1016.8
20260507081704 4 199 3.2 8.0 0.00 0.00 0.00 92 1016.8
20260507080702 4 202 3.2 6.4 0.00 0.00 0.00 92 1016.9
20260507075702 4 250 1.6 3.2 0.00 0.00 0.00 91 1016.9
20260507075203 4 333 0.0 3.2 0.00 0.00 0.00 91 1016.9
20260507074702 5 333 0.0 0.0 0.00 0.00 0.00 91 1016.9
20260507074202 5 333 0.0 0.0 0.00 0.00 0.00 91 1017.0
20260507073702 5 333 0.0 0.0 0.00 0.00 0.00 92 1017.0
20260507073202 5 333 0.0 0.0 0.00 0.00 0.00 92 1017.0
20260507072703 5 333 0.0 0.0 0.00 0.00 0.00 92 1017.0
20260507072201 5 333 0.0 0.0 0.00 0.00 0.00 92 1017.0
20260507071702 5 333 0.0 1.6 0.00 0.00 0.00 92 1017.1
20260507071202 5 333 0.0 1.6 0.00 0.00 0.00 92 1017.1
20260507070203 5 333 0.0 1.6 0.00 0.00 0.00 92 1017.3
20260507065702 5 333 0.0 0.0 0.00 0.00 0.00 92 1017.3
20260507065203 5 333 0.0 0.0 0.00 0.00 0.00 92 1017.3
20260507064202 5 333 0.0 0.0 0.00 0.00 0.00 92 1017.5
20260507063201 5 333 0.0 0.0 0.00 0.00 0.00 92 1017.4
20260507062703 5 333 0.0 0.0 0.00 0.00 0.00 92 1017.4
20260507061702 5 333 0.0 0.0 0.00 0.03 0.00 92 1017.5
20260507061202 5 333 0.0 0.0 0.00 0.03 0.00 92 1017.6
20260507060702 5 333 0.0 0.0 0.00 0.03 0.00 92 1017.5
20260507055703 5 333 0.0 0.0 0.00 0.05 0.00 92 1017.5
20260507055203 5 333 0.0 0.0 0.00 0.05 0.00 92 1017.5
20260507054703 5 333 0.0 0.0 0.00 0.05 0.00 92 1017.5
20260507053702 5 333 0.0 0.0 0.00 0.05 0.00 91 1017.6
20260507053202 5 333 0.0 0.0 0.00 0.05 0.00 91 1017.5
20260507052702 5 333 0.0 0.0 0.00 0.05 0.00 91 1017.5
20260507052202 5 333 0.0 0.0 0.00 0.05 0.00 90 1017.6
20260507051702 5 333 0.0 0.0 0.00 0.05 0.00 90 1017.5
20260507051203 5 333 0.0 0.0 0.00 0.05 0.00 89 1017.5
20260507050703 5 333 0.0 0.0 0.00 0.05 0.00 88 1017.6
20260507050201 5 333 0.0 0.0 0.00 0.05 0.00 88 1017.5
20260507045701 5 333 0.0 0.0 0.00 0.05 0.05 88 1017.5
20260507045202 5 333 0.0 0.0 0.00 0.05 0.05 87 1017.4
20260507044702 5 333 0.0 0.0 0.00 0.05 0.05 88 1017.4
20260507044203 5 333 0.0 0.0 0.00 0.05 0.05 88 1017.5
20260507043701 5 333 0.0 0.0 0.00 0.05 0.05 87 1017.6
20260507042702 5 333 0.0 0.0 0.00 0.05 0.05 87 1017.7
20260507041704 5 333 0.0 0.0 0.00 0.05 0.05 88 1017.7
20260507041202 5 333 0.0 0.0 0.00 0.05 0.05 88 1017.6
20260507040702 5 333 0.0 0.0 0.00 0.05 0.05 87 1017.4
20260507040202 5 333 0.0 0.0 0.00 0.05 0.05 87 1017.5
20260507035702 5 333 0.0 0.0 0.00 0.05 0.05 86 1017.6
20260507035202 5 333 0.0 0.0 0.00 0.05 0.05 87 1017.8
20260507034702 5 333 0.0 0.0 0.00 0.05 0.05 86 1018.1
20260507034202 5 333 0.0 0.0 0.00 0.05 0.05 85 1018.1
20260507033702 5 333 0.0 0.0 0.00 0.05 0.05 84 1017.9
20260507032702 5 333 0.0 0.0 0.00 0.05 0.05 84 1018.1
20260507031703 5 333 0.0 0.0 0.00 0.05 0.05 83 1017.7
20260507031202 6 333 0.0 0.0 0.00 0.05 0.05 82 1017.7
20260507030203 6 333 0.0 0.0 0.00 0.05 0.05 82 1017.6
20260507025202 6 333 0.0 0.0 0.00 0.05 0.05 81 1017.6
20260507024202 6 333 0.0 0.0 0.00 0.05 0.05 80 1017.5
20260507023702 6 333 0.0 0.0 0.00 0.05 0.05 80 1017.5
20260507023203 7 333 0.0 0.0 0.00 0.05 0.05 80 1017.5
20260507022702 7 333 0.0 0.0 0.00 0.05 0.05 79 1017.4
20260507022203 7 333 0.0 0.0 0.00 0.05 0.05 79 1017.4
20260507021202 8 333 0.0 0.0 0.00 0.05 0.05 77 1017.2
20260507020702 8 333 0.0 0.0 0.00 0.05 0.05 76 1017.2
20260507020203 8 333 0.0 0.0 0.00 0.05 0.05 75 1017.2
20260507015202 9 333 0.0 0.0 0.00 0.05 0.05 73 1017.0
20260507014702 10 333 0.0 3.2 0.00 0.05 0.05 72 1017.1
20260507014203 10 333 0.0 3.2 0.00 0.05 0.05 71 1017.0
20260507013202 11 333 1.6 3.2 0.00 0.05 0.05 67 1016.9
20260507012702 11 333 0.0 1.6 0.00 0.05 0.05 64 1017.0
20260507012203 12 333 0.0 1.6 0.00 0.05 0.05 61 1017.0
20260507011702 12 333 0.0 1.6 0.00 0.05 0.05 58 1017.0
20260507011202 12 333 0.0 1.6 0.00 0.05 0.05 56 1016.9
20260507010702 13 333 0.0 4.8 0.00 0.05 0.05 54 1016.9
20260507010201 13 333 1.6 4.8 0.00 0.05 0.05 51 1016.8
20260507005203 13 353 3.2 8.0 0.00 0.05 0.05 47 1016.7
20260507004202 13 344 4.8 8.0 0.00 0.05 0.05 46 1016.7
20260507003702 13 0 3.2 9.7 0.00 0.05 0.05 45 1016.8
20260507003203 13 357 4.8 17.7 0.00 0.05 0.05 44 1016.7
20260507002202 14 343 3.2 14.5 0.00 0.05 0.05 45 1016.7
20260507001702 14 348 6.4 14.5 0.00 0.05 0.05 45 1016.8
20260507001202 14 347 6.4 14.5 0.00 0.05 0.05 43 1016.8
20260507000204 14 320 9.7 17.7 0.00 0.05 0.05 41 1016.7
20260506235702 15 0 11.3 17.7 0.00 0.05 0.05 41 1016.7
20260506235201 15 336 8.0 19.3 0.00 0.05 0.05 40 1016.7
20260506234702 15 0 11.3 20.9 0.00 0.05 0.05 40 1016.7
20260506234202 15 355 12.9 20.9 0.00 0.05 0.05 41 1016.6
20260506233702 15 0 11.3 19.3 0.00 0.05 0.05 42 1016.7
20260506233202 15 331 11.3 19.3 0.00 0.05 0.05 41 1016.8
20260506232703 15 348 9.7 14.5 0.00 0.05 0.05 42 1016.7
20260506232202 15 330 8.0 19.3 0.00 0.05 0.05 42 1016.6
20260506231702 15 292 12.9 20.9 0.00 0.05 0.05 40 1016.7
20260506231202 15 313 11.3 20.9 0.00 0.05 0.05 44 1016.7
20260506230702 15 0 9.7 24.1 0.00 0.05 0.05 41 1016.7
20260506230201 15 334 14.5 24.1 0.00 0.05 0.05 41 1016.7
20260506225659 15 355 11.3 24.1 0.00 0.05 0.05 42 1016.7
20260506225158 15 323 9.7 24.1 0.00 0.05 0.05 42 1016.7
20260506224659 15 0 9.7 22.5 0.00 0.05 0.05 42 1016.6
20260506223657 15 289 14.5 22.5 0.00 0.05 0.05 43 1016.6
20260506223157 15 348 6.4 27.4 0.00 0.05 0.05 42 1016.7
20260506222655 15 0 8.0 27.4 0.00 0.05 0.05 43 1016.6
20260506222155 15 0 9.7 19.3 0.00 0.05 0.05 46 1016.6
20260506221655 15 10 12.9 22.5 0.00 0.05 0.05 42 1016.6
20260506221154 15 31 12.9 22.5 0.00 0.05 0.05 42 1016.7
20260506220654 15 354 14.5 22.5 0.00 0.05 0.05 45 1016.6
20260506215650 15 333 4.8 19.3 0.00 0.05 0.05 44 1016.7
20260506215151 15 329 11.3 24.1 0.00 0.05 0.05 42 1016.8
20260506214651 15 0 9.7 24.1 0.00 0.05 0.05 43 1016.8
20260506214149 16 0 16.1 24.1 0.00 0.05 0.05 43 1016.9
20260506213149 15 302 8.0 20.9 0.00 0.05 0.05 47 1017.0
20260506211647 15 316 9.7 20.9 0.00 0.05 0.05 45 1017.1
20260506211145 15 334 4.8 22.5 0.00 0.05 0.05 46 1017.1
20260506210645 15 350 8.0 24.1 0.00 0.05 0.05 44 1017.3
20260506210147 15 343 12.9 24.1 0.00 0.05 0.05 42 1017.3
20260506205643 15 0 11.3 20.9 0.00 0.05 0.05 45 1017.4
20260506205142 15 321 9.7 17.7 0.00 0.05 0.05 44 1017.4
20260506204643 15 0 11.3 29.0 0.00 0.05 0.05 48 1017.4
20260506204142 15 0 20.9 29.0 0.00 0.05 0.05 46 1017.5
20260506203142 15 0 8.0 20.9 0.00 0.05 0.05 45 1017.6
20260506202639 15 314 9.7 25.7 0.00 0.05 0.05 45 1017.7
20260506202139 15 0 14.5 32.2 0.00 0.05 0.05 46 1017.7
20260506201639 15 10 14.5 32.2 0.00 0.05 0.05 48 1017.7
20260506201138 15 7 16.1 24.1 0.00 0.05 0.05 43 1017.7
20260506200637 15 18 14.5 22.5 0.00 0.05 0.05 48 1017.7
20260506200137 15 338 4.8 17.7 0.00 0.05 0.05 52 1017.8
20260506195635 15 24 3.2 24.1 0.00 0.05 0.05 44 1017.8
20260506195135 15 0 16.1 27.4 0.00 0.05 0.05 50 1017.9
20260506194635 15 13 16.1 27.4 0.00 0.05 0.05 43 1017.9
20260506194133 15 0 11.3 20.9 0.00 0.05 0.05 47 1017.9
20260506193633 15 337 11.3 20.9 0.00 0.05 0.05 47 1018.1
20260506193133 15 1 11.3 20.9 0.00 0.05 0.05 46 1018.1
20260506192632 15 44 9.7 22.5 0.00 0.05 0.05 47 1018.2
20260506192132 15 20 12.9 22.5 0.00 0.05 0.05 45 1018.3
20260506190629 15 0 12.9 19.3 0.00 0.05 0.05 50 1018.2
20260506184628 14 0 12.9 24.1 0.00 0.08 0.05 45 1018.3
20260506184125 14 0 12.9 24.1 0.00 0.10 0.05 45 1018.5
20260506183125 14 334 8.0 20.9 0.00 0.13 0.05 49 1018.4
20260506182624 14 4 9.7 25.7 0.00 0.15 0.05 53 1018.5
20260506181623 14 8 8.0 24.1 0.00 0.18 0.05 50 1018.7
20260506181121 13 0 14.5 24.1 0.00 0.18 0.05 43 1018.7
20260506180621 13 14 9.7 20.9 0.00 0.18 0.05 44 1018.7
20260506180121 13 329 12.9 22.5 0.00 0.18 0.05 49 1018.8
20260506175619 13 0 11.3 22.5 0.00 0.18 0.05 45 1018.7
20260506175119 13 0 14.5 20.9 0.00 0.20 0.05 45 1018.6
20260506174620 13 330 12.9 22.5 0.00 0.23 0.05 43 1018.7
20260506174117 13 1 14.5 22.5 0.00 0.25 0.05 46 1018.9
20260506173617 13 357 12.9 22.5 0.00 0.28 0.05 49 1018.8
20260506172614 13 302 9.7 25.7 0.00 0.30 0.05 44 1018.8
20260506171616 13 16 9.7 22.5 0.00 0.30 0.05 49 1019.0
20260506171113 13 7 14.5 22.5 0.00 0.30 0.05 52 1019.0
20260506170613 13 348 11.3 19.3 0.00 0.30 0.05 51 1019.0
20260506170113 13 1 8.0 17.7 0.00 0.30 0.05 54 1019.1
20260506165611 13 14 9.7 17.7 0.00 0.33 0.05 54 1019.1
20260506165111 13 0 8.0 19.3 0.00 0.33 0.05 54 1019.1
20260506164610 12 11 9.7 19.3 0.00 0.33 0.05 53 1019.0
20260506164109 12 0 12.9 17.7 0.00 0.33 0.05 53 1019.1
20260506163109 12 334 8.0 20.9 0.00 0.36 0.05 55 1018.9
20260506162607 12 336 11.3 19.3 0.00 0.46 0.05 52 1018.7
20260506162107 12 0 11.3 17.7 0.00 0.51 0.05 55 1018.9
20260506161608 12 0 8.0 16.1 0.00 0.53 0.05 56 1018.9
20260506160106 12 0 14.5 27.4 0.00 0.74 0.05 56 1018.7
20260506155603 12 0 16.1 27.4 0.00 0.76 0.05 55 1018.6
20260506155102 12 0 11.3 20.9 0.00 0.84 0.05 58 1018.6
20260506154602 12 353 14.5 20.9 0.00 0.89 0.05 52 1018.6
20260506154102 12 353 8.0 14.5 0.00 0.91 0.05 61 1018.6
20260506153601 12 0 6.4 16.1 0.00 0.91 0.05 56 1018.6
20260506153102 12 0 11.3 17.7 0.00 0.91 0.05 58 1018.6
20260506152603 12 336 6.4 20.9 0.00 0.91 0.05 55 1018.5
20260506151101 12 16 8.0 17.7 0.00 0.97 0.05 62 1018.3
20260506150602 12 316 8.0 19.3 0.00 0.97 0.05 62 1018.5
20260506145600 11 329 8.0 19.3 0.00 0.97 0.05 63 1018.2